TimeEDT,TemperatureF,Dew PointF,Humidity,Sea Level PressureIn,VisibilityMPH,Wind Direction,Wind SpeedMPH,Gust SpeedMPH,PrecipitationIn,Events,Conditions,WindDirDegrees,DateUTC
12:54 AM,39.9,26.1,58,30.46,10.0,Calm,Calm,-,N/A,,Clear,0,2012-10-13 04:54:00
1:54 AM,35.1,28.0,76,30.46,10.0,Calm,Calm,-,N/A,,Clear,0,2012-10-13 05:54:00
2:54 AM,33.1,28.0,82,30.46,10.0,Calm,Calm,-,N/A,,Clear,0,2012-10-13 06:54:00
3:54 AM,30.0,27.0,88,30.46,10.0,Calm,Calm,-,N/A,,Clear,0,2012-10-13 07:54:00
4:54 AM,30.9,28.0,89,30.48,10.0,Calm,Calm,-,N/A,,Clear,0,2012-10-13 08:54:00
5:54 AM,30.9,28.0,89,30.50,10.0,Calm,Calm,-,N/A,,Clear,0,2012-10-13 09:54:00
6:54 AM,30.0,27.0,88,30.52,10.0,Calm,Calm,-,N/A,,Clear,0,2012-10-13 10:54:00
7:54 AM,30.9,28.9,92,30.53,10.0,Calm,Calm,-,N/A,,Partly Cloudy,0,2012-10-13 11:54:00
8:54 AM,39.9,30.0,68,30.53,10.0,NNE,3.5,-,N/A,,Clear,30,2012-10-13 12:54:00
9:54 AM,46.0,27.0,47,30.53,10.0,Variable,4.6,-,N/A,,Clear,0,2012-10-13 13:54:00
10:54 AM,48.9,23.0,36,30.53,10.0,East,3.5,-,N/A,,Clear,90,2012-10-13 14:54:00
11:54 AM,52.0,26.1,37,30.51,10.0,North,4.6,-,N/A,,Clear,10,2012-10-13 15:54:00
12:54 PM,53.1,24.1,32,30.49,10.0,West,5.8,-,N/A,,Clear,260,2012-10-13 16:54:00
1:54 PM,53.1,23.0,31,30.44,10.0,West,5.8,-,N/A,,Clear,260,2012-10-13 17:54:00
2:54 PM,57.0,28.9,34,30.40,10.0,Calm,Calm,-,N/A,,Clear,0,2012-10-13 18:54:00
3:54 PM,57.0,27.0,32,30.40,10.0,Variable,4.6,-,N/A,,Clear,0,2012-10-13 19:54:00
4:54 PM,57.0,28.0,33,30.38,10.0,SW,3.5,-,N/A,,Clear,230,2012-10-13 20:54:00
5:54 PM,55.9,32.0,40,30.38,10.0,Variable,4.6,-,N/A,,Clear,0,2012-10-13 21:54:00
6:54 PM,48.9,34.0,56,30.38,10.0,Calm,Calm,-,N/A,,Clear,0,2012-10-13 22:54:00
8:54 PM,46.9,37.9,71,30.37,10.0,Calm,Calm,-,N/A,,Clear,0,2012-10-14 00:54:00
10:54 PM,46.0,39.9,79,30.34,10.0,SSE,3.5,-,N/A,,Clear,160,2012-10-14 02:54:00